Regional Weather Roundup
Issued by NWS

Home | Current Version | Previous Version | Text Only | Print | Product List | Glossary Off
Versions: 1 2 3 4 5 6 7 8 9 10 11 12 13 14 15 16 17 18 19 20 21 22 23 24 25 26 27 28 29 30 31 32 33 34 35 36 37 38 39 40 41 42 43 44 45 46 47 48 49 50

809
ASUS45 KTFX 251110
RWRMT
MONTANA REGIONAL WEATHER ROUNDUP
NATIONAL WEATHER SERVICE GREAT FALLS MT
500 AM MDT SUN JUN 25 2017

NOTE: "FAIR" INDICATES FEW OR NO CLOUDS BELOW 12000 FEET WITH NO
SIGNIFICANT WEATHER AND/OR OBSTRUCTIONS TO VISIBILITY.

MTZ001>007-043-251200-
WEST OF THE DIVIDE

CITY           SKY/WX    TMP DP  RH WIND       PRES   REMARKS
KALISPELL      CLEAR     45  44  97 CALM      30.23R
MISSOULA       CLEAR     51  41  68 NW5       30.25S
BUTTE          CLEAR     42  35  76 SE3       30.37S
MULLAN PASS    CLEAR     57  31  37 SE9       30.33S
ANACONDA         N/A     45  36  70 S6        30.34S
DEER LODGE       N/A     45  37  76 CALM      30.36R
EUREKA           N/A     46  41  81 MISG      30.22S
HAMILTON         N/A     48  39  71 CALM      30.27S
$$

MTZ008-052>055-251200-
SOUTHWEST MONTANA

CITY           SKY/WX    TMP DP  RH WIND       PRES   REMARKS
BOZEMAN        CLEAR     44  37  76 E3        30.34S
DILLON         CLEAR     46  36  68 E6        30.34R
W YELLOWSTONE  CLOUDY    32  30  93 CALM      30.42R
ENNIS          CLEAR     39  36  87 NE3       30.40S
THREE FORKS      N/A     44  38  79 CALM      30.29S
$$

MTZ009-010-012-014-046-048-049-054-251200-
EAST SLOPES AND CENTRAL MONTANA

CITY           SKY/WX    TMP DP  RH WIND       PRES   REMARKS
CUT BANK       CLEAR     48  42  80 CALM      30.31S
GREAT FALLS    CLEAR     47  40  76 CALM      30.32S
MALMSTROM AFB  CLEAR     44  41  88 SW6       30.31S
HELENA         CLEAR     53  40  61 CALM      30.32R
CHOTEAU          N/A     46  43  87 S7        30.33S
$$

MTZ011-013-016-021-045-047-050-051-251200-
NORTH CENTRAL MONTANA

CITY           SKY/WX    TMP DP  RH WIND       PRES   REMARKS
HAVRE          CLEAR     40  37  89 CALM      30.30S
LEWISTOWN      CLEAR     40  36  86 SE6       30.34S
N BAR RANCH      N/A     39  34  81 CALM      30.37S
CHINOOK          N/A     41  39  93 CALM      30.30R
FORT BENTON      N/A     46  41  81 MISG      30.33R
$$

MTZ017>020-022>027-061-062-251200-
NORTHEAST MONTANA

CITY           SKY/WX    TMP DP  RH WIND       PRES   REMARKS
GLASGOW        CLEAR     45  34  65 N3        30.25S
JORDAN           N/A     39  27  62 W5        30.28S
SIDNEY         PTCLDY    43  35  73 S7        30.25S
WOLF POINT     PTCLDY    41  32  70 CALM      30.26R
MALTA          CLEAR     41  39  93 SW6       30.28R
PLENTYWOOD       N/A     52  46  82 CALM      30.28R
POPLAR           N/A     48  34  57 CALM      30.26S
$$

MTZ028>42-056>058-251200-
SOUTHCENTRAL AND SOUTHEAST MONTANA

CITY           SKY/WX    TMP DP  RH WIND       PRES   REMARKS
BAKER          CLEAR     50  31  48 SW9       30.30F
BILLINGS       PTCLDY    55  39  54 SW7       30.31S
LIVINGSTON     CLEAR     38  34  85 SW3       30.36S
MILES CITY     CLEAR     48  31  51 S8        30.29S
BIG TIMBER     CLEAR     45  37  76 CALM      30.38R
FORSYTH          N/A     46  43  87 CALM      30.29S
ROUNDUP          N/A     48  33  56 SW6       30.21R
$$

REGIONAL REPORTS...DAKOTAS

CITY           SKY/WX    TMP DP  RH WIND       PRES   REMARKS
WILLISTON      MOCLDY    52  41  66 CALM      30.26S
MINOT          CLOUDY    50  44  80 CALM      30.24S
DICKINSON      CLEAR     42  33  70 S7        30.26F
BEACH            N/A     48  34  57 SW9       30.31S
CROSBY           N/A     50  52 100 W10       30.27R
TIOGA          LGT RAIN  48  48 100 CALM      30.28R
WATFORD CITY   MOCLDY    46  39  76 N8        30.27R
BISMARCK       MOCLDY    45  39  79 CALM      30.29R
GRAND FORKS    PTCLDY    41  40  96 W7        30.20R
FARGO          CLEAR     45  42  89 NW8       30.21R
BUFFALO SD       N/A     48  32  53 SW6       30.27S
RAPID CITY     MOCLDY    46  33  60 CALM      30.36S
$$

REGIONAL REPORTS...WYOMING/IDAHO/WASHINGTON

CITY           SKY/WX    TMP DP  RH WIND       PRES   REMARKS
GILLETTE       CLEAR     38  33  82 CALM      30.34R
SHERIDAN       PTCLDY    41  37  86 SW3       30.33S
BUFFALO WY     CLEAR     49  36  61 W3        30.36R
CODY           CLEAR     46  35  65 S3        30.38R
YELLOWSTONE LA   N/A     33  31  92 NW3       30.48S
IDAHO FALLS    CLEAR     49  45  86 N8        30.26R
SALMON         CLEAR     46  37  71 CALM      30.25S
BOISE          CLEAR     62  40  44 S7        30.09S
SPOKANE        CLEAR     62  45  53 E5        30.12F
$$

REGIONAL REPORTS...ALBERTA

CITY           SKY/WX    TMP DP  RH WIND       PRES   REMARKS
EDMONTON       CLEAR     50  48  93 CALM      30.22S
CALGARY        PTCLDY    52  45  76 S3        30.26F
LETHBRIDGE     CLOUDY    45  43  93 W7        30.27S
MEDICINE HAT   CLEAR     46  43  87 S6        30.27S
WATERTON GATE    N/A     37  36  93 CALM        N/A
CARDSTON         N/A     48  41  76 SW3         N/A
ONEFOUR          N/A     46  39  76 NW2         N/A
$$

REGIONAL REPORTS...SASKATCHEWAN

CITY           SKY/WX    TMP DP  RH WIND       PRES   REMARKS
SWIFT CURRENT  MOCLDY    46  45  93 SW7       30.26R
REGINA         LGT RAIN  48  46  93 SW2       30.26S
SASKATOON      PTCLDY    43  43 100 CALM      30.27R
CYPRESS HILLS    N/A     48  37  66 NW3         N/A
VAL MARIE        N/A     39  34  81 W5          N/A
ROCKGLEN         N/A     48  41  76 CALM        N/A
$$




USA.gov is the U.S. government's official web portal to all federal, state and local government web resources and services.